CZ-4C DEB

Satellite information

Favourite Embed

Satellite Type and Status

DEBRISIN ORBIT

Key statistics

Satellite CZ-4C DEB at a glance.

Uptime

6449

Days in orbit

Revolutions

≈ 14.6

Per day

Orbit

SSO

Sun Synchronous Orbit

Inclination

97.9

Latest

Satellite identification and parameters

Extended collection of information and parameters for CZ-4C DEB.

Object identification

Identified? True

Debris? True

Object name: CZ-4C DEB

International designator: 2007-055F

Object number (NORAD): 35251

Object ID (CCSDS): 35251

Country: PEOPLES REPUBLIC OF CHINA (PRC)

Current information (Y/N): Y

RCS size: SMALL

Orbital parameters

Period: 98.299 minutes

Inclination: 97.8885 deg

SMA: 7055.487 km

Apoapsis: 783.361 km

Periapsis: 571.343 km

RAAN: 132.1511 deg

Eccentricy: 0.0150251

Argument of periapsis: 247.7079 deg

Mean anomaly: 110.8136 deg

Mean motion: 14.64914499 rev/day

Mean motion (dot): 0.00002461 rev/day2

B* drag term: 0.00039857 1/REarth

Two-line elements (TLE)

Creation date: July 8, 2025, 2:27 a.m.

Reference frame: TEME

Reference center: EARTH

Epoch: July 7, 2025, 7:32 p.m. UTC

TLE line 0: 0 CZ-4C DEB

TLE line 1: 1 35251U 07055F 25188.81431832 .00002461 00000-0 39857-3 0 9995

TLE line 2: 2 35251 97.8885 132.1511 0150251 247.7079 110.8136 14.64914499927264

Live tracking on map

Real-time ground track for satellite CZ-4C DEB.

In-orbit conjunctions

A list of the most updated potential collisions computed for object CZ-4C DEB.

Target Orbit TCA Probability of collision Miss distance Type
OKEAN 4 LEO 2024-11-24 01:23:03 0.0001299537 537.0 (m) PAYLOAD

Associated space launch

Chinese Earth observation satellite likely also used for military reconnaissance

CZ-4C DEB was lifted into orbit during the mission ‘Long March 4C | Yaogan Weixing 3’, on board a Long March 4C space rocket.

The launch took place on Nov. 11, 2007, 10:48 p.m. from Launch Complex 7.

For more information about the launch, click the button.

Launch to space Long March 4C | Yaogan Weixing 3
Long March 4C | Yaogan Weixing 3

Agency: N/A

Status: Launch Successful

Launch date: Nov. 11, 2007, 10:48 p.m. UTC

Rocket: Long March 4C

Launch pad: Launch Complex 7

Location: Taiyuan Satellite Launch Center, People's Republic of China

...

Latest news about this satellite

There are no fresh news available about this satellite. Check back as we update our databases every day.


Newsletter sign-up

Weekly statistics, charts and insights to help you stay on top of the space industry.